Terminal Aerodrome Forecast
Issued by NWS

Home | Current Version | Previous Version | Text Only | Print | Product List | Glossary On
Versions: 1 2 3 4 5 6 7 8 9 10 11 12 13 14 15 16 17 18 19 20 21 22 23 24 25
000
FTUS44 KFWD 300252 AAA
TAFGKY
TAF AMD
KGKY 300252Z 3003/3024 17008KT P6SM SCT300
     FM301800 10006KT P6SM SCT060 SCT300=

USA.gov is the U.S. government's official web portal to all federal, state and local government web resources and services.